Regional Weather Roundup
Issued by NWS Charleston, SC

Current Version | Previous Version | Graphics & Text | Print | Product List | Glossary On
Versions: 1 2 3 4 5 6 7 8 9 10 11 12 13 14 15 16 17 18 19 20 21 22 23 24 25 26 27 28 29 30 31 32 33 34 35 36 37 38 39 40 41 42 43 44 45 46 47 48 49 50
000
ASUS42 KCHS 221810
RWRCHS

REGIONAL WEATHER ROUNDUP
NATIONAL WEATHER SERVICE CHARLESTON SC
200 PM EDT MON SEP 22 2014

NOTE: "FAIR" INDICATES FEW OR NO CLOUDS BELOW 12,000 FEET WITH NO
SIGNIFICANT WEATHER AND/OR OBSTRUCTIONS TO VISIBILITY.

NOT ALL STATIONS ARE QUALITY CONTROLLED BY THE NATIONAL
WEATHER SERVICE. USE DATA WITH CAUTION...ESPECIALLY
DEWPOINT OBSERVATIONS.

SCZ027-030-031-034>040-042>050-221900-
...SOUTH CAROLINA...

CITY           SKY/WX    TMP DP  RH WIND       PRES   REMARKS
N CHARLESTON   MOSUNNY   87  67  51 S5        29.99F HX  90
6HR MIN TEMP:  72; 6HR MAX TEMP:  87;

WATERFRONT PRK NOT AVBL
FORT JOHNSON   NOT AVBL
MOUNT PLEASANT FAIR      84  70  61 SE7       29.99F
JOHNS ISLAND   CLEAR     84  73  70 SE6       29.99F HX  91
PINOPOLIS        N/A     82  70  65 VRB5      29.91F
MONCKS CORNER    N/A     84  72  65 CALM      30.00S
SUMMERVILLE    FAIR      82  68  61 CALM      30.00S
BEAUFORT MCAS  SUNNY     87  67  51 CALM      29.99F HX  90
6HR MIN TEMP:  70; 6HR MAX TEMP:  87;

BEAUFORT ARPT  FAIR      84  68  58 SW7       29.98F
HILTON HEAD IS SUNNY     86  70  58 S5        30.00F HX  90
GEORGETOWN     NOT AVBL
WALTERBORO     MOCLDY    86  63  45 E3        29.99F
ORANGEBURG     CLOUDY    73  61  65 NW5       30.04R
6HR MIN TEMP:  71; 6HR MAX TEMP:  77; 6HR PCP: TRACE;

BARNWELL       MOCLDY    75  64  69 N10       30.04R
AIKEN          CLOUDY    72  63  73 N7        30.09F
MANNING        MOCLDY    75  64  69 NE3       30.02F
KINGSTREE      NOT AVBL
COLUMBIA       LGT RAIN  76  57  51 NE5       30.04F
6HR MIN TEMP:  70; 6HR MAX TEMP:  77; 6HR PCP: TRACE;

SUMTER         DRIZZLE   77  55  47 N8        30.03R
6HR MIN TEMP:  68; 6HR MAX TEMP:  79; 6HR PCP: TRACE;

FLORENCE       PTSUNNY   79  58  48 NE9       30.02F
6HR MIN TEMP:  68; 6HR MAX TEMP:  81; 6HR PCP: TRACE;

MYRTLE BEACH   PTSUNNY   77  64  65 N10       30.01S
N MYRTLE BEACH PTSUNNY   77  64  64 NE8       30.01S
6HR MIN TEMP:  72; 6HR MAX TEMP:  79; 6HR PCP: TRACE;


$$

GAZ063-065-086>088-099>101-113>116-118-119-134-136>141-150-221900-
...GEORGIA...

CITY           SKY/WX    TMP DP  RH WIND       PRES   REMARKS
SAVANNAH ARPT  MOSUNNY   89  66  46 SW7       29.99F HX  91
6HR MIN TEMP:  68; 6HR MAX TEMP:  89;

HUNTER AAF     SUNNY     88  67  49 SW9       29.98F HX  90
6HR MIN TEMP:  68; 6HR MAX TEMP:  88;

FORT STEWART   MOSUNNY   88  65  46 VRB5      29.98F HX  90
6HR MIN TEMP:  65; 6HR MAX TEMP:  88;

STATESBORO     NOT AVBL
SYLVANIA       PTCLDY    90  73  58 CALM      30.00S HX  97
CLAXTON        MOCLDY    88  68  51 NW5       29.99F HX  91
THOMSON        CLOUDY    68  68 100 N5        30.10F
AUGUSTA-BUSH   LGT RAIN  70  61  73 NE6       30.04S
6HR MIN TEMP:  69; 6HR MAX TEMP:  75; 6HR PCP: TRACE;

AUGUSTA-DANIEL CLOUDY    72  58  61 N7        30.06F
SWAINSBORO     CLOUDY    81  70  69 N15G24    30.02S
VIDALIA        MOSUNNY   88  68  51 W8        30.00F HX  91
ALMA           SUNNY     88  63  43 SW8       30.00F
6HR MIN TEMP:  63; 6HR MAX TEMP:  89;

WAYCROSS       SUNNY     91  66  44 W3        30.00  HX  93
JESUP          FAIR      90  66  45 N5        30.00F HX  92
BRUNSWICK      SUNNY     88  59  37 CALM      30.01S
SAINT SIMONS   SUNNY     85  67  54 SE9       30.01S
6HR MIN TEMP:  71; 6HR MAX TEMP:  86;


$$

SCZ027-028-034-036>038-045-046-048>050-GAZ119-141-221900-
...LAKE AND SUPPLEMENTAL COASTAL OBSERVATIONS...

STATION/POSITION TIME  TEMP    WIND        PRES    WAVE   SWELL
                       AIR SEA DIR/SP/G            HT/PER HT/PER/DIR
                 (UTC) (F)     (DEG/KT/KT) (MB)    (FT/S) (FT/S/D)
UPR LAKE MARION  NOT AVBL
WINYAH BAY       1700   79      80/ 10     1016.0S
LAKE MURRAY      1700   74      10/  1/  5 1017.6R
ACE BASIN NERRS  1700   85     340/  2     1016.0S
FORT PULASKI     1800   85     230/  4/  6 1015.9F
SAPELO ISLAND    1700   87     240/  4     1017.0S

$$

ANZ835-935-AMZ111-154-330-350-352-354-374-450-454-472-221900-
...C-MAN AND BUOY OBSERVATIONS...

STATION/POSITION TIME  TEMP    WIND        PRES    WAVE   SWELL
                       AIR SEA DIR/SP/G            HT/PER HT/PER/DIR
                 (UTC) (F)     (DEG/KT/KT) (MB)    (FT/S) (FT/S/D)
FOLLY BEACH CMAN 1700   80      90/  4/  5 1016.5F
BUOY 41004       1800   80 82  240/ 10/ 12 1015.5F   3/ 5   3/ 5
BUOY 41008       1800   81 83  230/ 10/ 12 1016.4F   2/ 8   2/ 90/ 8
5E ST. MARYS GA  1800      84                N/A     2/ 9
FRYING PAN BUOY  NOT AVBL
BUOY 41025       1800   76     360/ 14/ 17 1015.6R   4/ 8   3/130/ 8
CAPE LOOKOUT NC  1800   79      20/  9/ 11 1015.6F
BUOY 41002       1748   80 81  220/  6/  8 1018.2F   4/ 7   3/110/ 7
BUOY 41010       1800   79 84   20/  2/  6 1017.3F   4/ 8   3/ 40/ 8
BUOY 41012       NOT AVBL
ST AUGUSTINE FL  1800   81     120/  7/  8 1016.7F
CAPERS NEARSHORE 1700   82     150/  4/  4   N/A
FRIPP NEARSHORE  NOT AVBL


$$


USA.gov is the U.S. government's official web portal to all federal, state and local government web resources and services.